Starlink 2476

operational
NORAD ID: 48134 Int'l Des: 2021-027 Owner: SPXS Country: US Constellation: starlink
LEOCIRCULARSTARLINK_TYPE

Über Starlink 2476

Beschreibung wird geladen...

Live-Position

3D-Globus wird geladen...

Nächste Überflüge

Höhenverlauf

Altitude vs Time

uPlot chart will show altitude changes over time

Zweizeiliger Elementsatz

1 48134U 21027AU 25352.49587383 .00000277 00000-0 37470-4 0 9997
2 48134 53.0533 176.1115 0001348 92.8239 267.2904 15.06397412260176
Epoch: 18. Dez. 2025 • Age: 13 hours

Aktueller Status

Höhe 552.2 km
Geschwindigkeit 7.59 km/s
Subsatellitenpunkt 50.36°N, 135.8°E
Startdatum 7. Apr. 2021
Alter 4.6 years
Typ internet

Technische Details

Klassifizierung Payload
Masse 260.00 kg
Trockenmasse 248.00 kg
Gesamtmasse 260.00 kg
Länge 0.20 m
Durchmesser 2.80 m
Spannweite 9.00 m
Form Box + pan
Hersteller SPXS
Bus-Typ Starlink
Phasenstatus In Orbit
Besitzer/Staat SPXS/US

Große Konstellationen

Loading constellations...